Orbital Elements at Epoch 2459200.5 (2020-Dec-17.0) TDB
Reference: JPL 19 (heliocentric ecliptic J2000)
Element | Value | Uncertainty (1-sigma) | Units |
e | .1635421124680391 | 4.0952e-08 | |
a | 2.170989070236321 | 9.0307e-09 | au |
q | 1.815940931544849 | 9.2928e-08 | au |
i | 2.126512063367872 | 3.6983e-06 | deg |
node | 283.4937994909278 | 0.00010333 | deg |
peri | 39.68853340002135 | 0.00010386 | deg |
M | 357.2537791117462 | 1.1753e-05 | deg |
tp | 2459209.412875657624 (2020-Dec-25.91287566) | 3.817e-05 | TDB |
period | 1168.382066595159 3.20 | 7.2902e-06 1.996e-08 | d yr |
n | .3081183889180138 | 1.9225e-09 | deg/d |
Q | 2.526037208927793 | 1.0508e-08 | au |
|
| | Orbit Determination Parameters
Additional Information
|